Regional Weather Roundup
Issued by NWS

Home | Current Version | Previous Version | Graphics & Text | Print | Product List | Glossary On
Versions: 1 2 3 4 5 6 7 8 9 10 11 12 13 14 15 16 17 18 19 20 21 22 23 24 25 26 27 28 29 30 31 32 33 34 35 36 37 38 39 40 41 42 43 44 45 46 47 48 49 50
000
ASUS43 KDTX 290710
RWRMI
MICHIGAN HOURLY REGIONAL WEATHER ROUNDUP
NATIONAL WEATHER SERVICE DETROIT/PONTIAC MI
300 AM EDT FRI MAY 29 2015

NOTE: "FAIR" INDICATES FEW OR NO CLOUDS BELOW 12,000 FEET WITH NO
SIGNIFICANT WEATHER AND/OR OBSTRUCTION TO VISIBILITY.

MIZ047>049-052>055-059>063-066>070-074>076-081>083-290800-
SOUTHEAST LOWER MICHIGAN

CITY           SKY/WX    TMP DP  RH WIND       PRES   REMARKS
ADRIAN         PTCLDY    63  56  78 E3        30.17F
ALMA           PTCLDY    59  53  82 CALM      30.16S
ANN ARBOR      PTCLDY    59  52  77 CALM      30.17F
BAD AXE        PTCLDY    60  50  69 S7        30.19F
CARO           PTCLDY    57  50  78 CALM      30.17F
DETROIT CITY   CLEAR     61  50  67 SE5       30.19S
DETROIT        MOCLDY    64  50  60 E3        30.18F
FLINT          PTCLDY    63  49  60 S5        30.17F
GROSSE ILE     PTCLDY    64  55  72 E5        30.16F
HILLSDALE      PTCLDY    64  55  72 E5        30.16S
HOWELL         CLEAR     60  49  65 SE7       30.17F

CITY           SKY/WX    TMP DP  RH WIND       PRES   REMARKS
JACKSON        PTCLDY    62  52  69 SE9       30.16F
LAMBERTVILLE   PTCLDY    61  55  82 CALM      30.16F
LANSING        CLEAR     63  51  65 SE7       30.16S
LAPEER         FAIR      61  49  63 SE5       30.19F
MASON          PTCLDY    60  50  69 SE7       30.16F
MONROE         PTCLDY    64  55  72 E5        30.15F
MT. CLEMENS    CLEAR     61  54  77 E5        30.17S
PONTIAC        CLEAR     63  49  60 SE6       30.18F
PORT HOPE        N/A     65  52  62 S7        30.17R
PORT HURON     CLEAR     54  50  87 SE3       30.21R
TRI CITIES     PTCLDY    63  53  70 SE3       30.17S
MIDLAND        FAIR      65  52  63 SE6       30.15S
TROY           CLEAR     64  48  56 CALM      30.20F
SAGINAW HB     PTCLDY    59  52  77 SE6       30.16S
$$
MIZ043>046-050>051-056>058-064>065-071>073-077>080-290800-
SOUTHWEST LOWER MICHIGAN

CITY           SKY/WX    TMP DP  RH WIND       PRES   REMARKS
BATTLE CREEK   PTCLDY    66  53  63 SE8       30.15S
BENTON HARBOR  PTCLDY    66  56  70 SE9       30.09F
BIG RAPIDS     PTCLDY    58  55  87 CALM      30.13F
COLDWATER      CLEAR     64  54  71 SE6       30.14S
FREMONT        FAIR      63  56  78 SE5       30.11F
HOLLAND        CLOUDY    66  55  67 SE8       30.11F
GRAND RAPIDS   PTCLDY    65  54  67 SE9       30.13S
IONIA          FAIR      64  52  64 SE10      30.14S
KALAMAZOO      MOCLDY    67  53  61 SE5       30.14S
LUDINGTON      PTCLDY    64  57  80 SE6       30.10S
MARSHALL       PTCLDY    63  53  70 CALM      30.14S
MOUNT PLEASANT PTCLDY    63  53  70 CALM      30.15S
MUSKEGON       MOCLDY    64  57  78 E6        30.10F
SOUTH HAVEN    MOCLDY    67  55  66 SE7       30.10S
$$
MIZ016>042-290800-
NORTHERN LOWER MICHIGAN

CITY           SKY/WX    TMP DP  RH WIND       PRES   REMARKS
ALPENA         PTCLDY    54  51  90 CALM      30.16R
BEAVER ISLAND  PTCLDY    55  53  93 SE6       30.09F
BELLAIRE         N/A     56  55  95 CALM      30.12F FOG
CADILLAC       CLEAR     63  55  77 SE5       30.13F
CHARLEVOIX     MOCLDY    60  58  92 SE5       30.14S
FRANKFORT      PTCLDY    58  51  78 CALM      30.09F
GAYLORD        MOCLDY    63  60  90 S7        30.15S
GRAYLING       MOCLDY    62  56  81 S3        30.16S
HARBOR SPRINGS MOCLDY    57  56  95 E3        30.12S
HOUGHTON LAKE  PTCLDY    62  55  77 SE6       30.16S
MANISTEE       PTCLDY    57  52  82 E6        30.10F
OSCODA         PTCLDY    61  56  84 S3        30.17R
PELLSTON       MOCLDY    55  53  93 CALM      30.13S
ROGERS CITY    PTCLDY    64  59  82 S8        30.15R
TRAVERSE CITY  PTCLDY    58  54  86 CALM      30.09F
$$
MIZ007>008-015-290800-
EASTERN UPPER MICHIGAN

CITY           SKY/WX    TMP DP  RH WIND       PRES   REMARKS
KINROSS        PTCLDY    54  52  94 SE8       30.12F
MACKINAC ISLAN MOCLDY    44  43  97 SE5       30.12S
NEWBERRY       MOCLDY    56  53  91 S8        30.08F
S. S. MARIE    PTCLDY    54  49  83 SE5       30.12F
MUNISING         N/A     57  49  74 S9        30.04F
$$
MIZ004>006-011>014-085-290800-
CENTRAL UPPER MICHIGAN

CITY           SKY/WX    TMP DP  RH WIND       PRES   REMARKS
MANISTIQUE     MOCLDY    51  49  95 SE6       30.08F
ESCANABA       MOCLDY    54  48  82 SE6       30.05S
MENOMINEE      MOCLDY    63  52  67 S3        30.03F
SAWYER-GWINN   MOCLDY    57  52  85 S8        30.04S
$$
MIZ001>003-009>011-084-290800-
WESTERN UPPER MICHIGAN

CITY           SKY/WX    TMP DP  RH WIND       PRES   REMARKS
IRON MOUNTAIN  MOCLDY    61  57  87 SE6       30.02F
HOUGHTON       MOCLDY    61  56  83 SW8       29.95F
COPPER HARBOR    N/A     59  54  83 W8        29.94S
IRONWOOD       MOCLDY    66  55  68 S10       29.92F
$$

ABBREVIATIONS USED IN REMARKS
   TC - TEMPERATURE IN CELSIUS
  WCI - WIND CHILL INDEX
   HX - HEAT INDEX
  VSB - VISIBILITY




USA.gov is the U.S. government's official web portal to all federal, state and local government web resources and services.